Baker City Municipal Airport Baker City US
ICAO: KBKE
IATA: BKE
Category: Medium
Scheduled Services: No

Elevation: 3373 ft
TransAlt. 18000 ft.

Airport Communications:
ASOS:134.275
SALT LAKE CITY CNTR:128.05
CTAF/UNICOM:123

KBKE Zoom In..

If you have problems with the map follow the link
https://www.worldairports.se/pages/airport.php?
ICAO=KBKE

Runways:

(A) RW 08 length 3670 ft width 140 ft
---- / hdg 81

(B) RW 13 length 5085 ft width 100 ft
---- / hdg 126

(C) RW 17 length 4359 ft width 75 ft
---- / hdg 165

(D) RW 26 length 3670 ft width 140 ft
---- / hdg 261

(E) RW 31 length 5085 ft width 100 ft
---- / hdg 306

(F) RW 35 length 4359 ft width 75 ft
---- / hdg 345

Location; KBKE
Day. 05 / Time. 21.53 Zulu
* Altimeter: 30.17
* Temperature: 02° c. 35.6°f.
* Wind from: 000° Speed 00 kn.
Dewpoint: -01° c.
Visibility: 8 Statute Miles.
Clouds: Overcast 1400 ft.

KBKE 052153Z AUTO 00000KT 8SM OVC014 02/M01 A3017 RMK AO2 SLP245 T00171006


Wind - Calm.

 
 
jpsmedia worldairports.se 2019   terms of use